Regional Weather Roundup
Issued by NWS Upton, NY

Current Version | Previous Version | Text Only | Print | Product List | Glossary Off
Versions: 1 2 3 4 5 6 7 8 9 10 11 12 13 14 15 16 17 18 19 20 21 22 23 24 25 26 27 28 29 30 31 32 33 34 35 36 37 38 39 40 41 42 43 44 45 46 47 48 49 50

000
ASUS41 KOKX 252305
RWROKX

REGIONAL WEATHER ROUNDUP
NATIONAL WEATHER SERVICE NEW YORK NY
600 PM EST TUE NOV 25 2014

NOTE: "FAIR" INDICATES FEW OR NO CLOUDS BELOW 12,000 FEET WITH NO
SIGNIFICANT WEATHER AND/OR OBSTRUCTIONS TO VISIBILITY.

NYZ071-072-176-178-NJZ106-104-260000-
NEW YORK CITY METRO AREA


CITY           SKY/WX    TMP DP  RH WIND       PRES   REMARKS
CENTRAL PARK   MOCLDY    53  27  36 VRB5      30.06R
LAGUARDIA APRT CLOUDY    53  28  38 SW8       30.04R
KENNEDY INTL   MOCLDY    49  36  61 SW9       30.06R
NEWARK/LIBERTY MOCLDY    49  31  49 SW7       30.04R
BRNX BOT. GARD   N/A    N/A N/A N/A SW6       30.03F
TETERBORO      MOCLDY    53  28  38 S9        30.03R
$$

NYZ177-179-078>081-260000-
LONG ISLAND NEW YORK

CITY           SKY/WX    TMP DP  RH WIND       PRES   REMARKS
FARMINGDALE    NOT AVBL
ISLIP          CLOUDY    48  35  60 SW6       30.03R
SHIRLEY        CLOUDY    49  34  56 W3        30.05R
WESTHAMPTON    CLOUDY    47  36  65 CALM      30.05R
MONTAUK POINT    N/A     53  33  46 VRB6      30.04R
$$

NYZ052-065-067-260000-
HUDSON VALLEY

CITY           SKY/WX    TMP DP  RH WIND       PRES   REMARKS
WHITE PLAINS   MOCLDY    46  30  53 CALM      30.02R
NEWBURGH       PTCLDY    45  30  57 CALM      30.02R
MONTGOMERY     PTCLDY    39  30  70 SW3       30.01R
POUGHKEEPSIE   MOCLDY    47  28  47 CALM      30.01R
ALBANY         PTCLDY    39  25  57 SW5       30.00R
$$

NJZ001-105-106-008-010-013-015-019>022-104-260000-
NEW JERSEY

CITY           SKY/WX    TMP DP  RH WIND       PRES   REMARKS
NEWARK/LIBERTY MOCLDY    49  31  49 SW7       30.04R
TETERBORO      MOCLDY    53  28  38 S9        30.03R
CALDWELL       MOCLDY    49  28  44 CALM      30.04R
MORRISTOWN     MOCLDY    48  30  49 SW5       30.04R
SOMERVILLE     MOCLDY    43  32  65 CALM      30.03R
SUSSEX         MOCLDY    43  29  57 SW3       30.03R
ANDOVER          N/A     39  33  79 CALM      30.04R
TRENTON        MOCLDY    49  28  44 SW5       30.05R
MILLVILLE      CLOUDY    46  36  68 CALM      30.07S
ATLANTIC CITY  CLOUDY    51  32  48 W3        30.08R
WRIGHTSTOWN    CLOUDY    46  33  61 S1        30.05R
TOMS RIVER     CLOUDY    46  36  66 CALM      30.07S
BELMAR         CLOUDY    50  28  43 SW5       30.06S
$$

PAZ047>061-062-071-260000-
EASTERN PENNSYLVANIA

CITY           SKY/WX    TMP DP  RH WIND       PRES   REMARKS
PHILADELPHIA   MOCLDY    51  30  44 SW8       30.08R
ALLENTOWN      PTCLDY    44  26  49 CALM      30.05R
SCRANTON       CLEAR     44  26  49 S6        30.02R
$$

CTZ002-004>006-009-010-012-RIZ004-006-007-MAZ004-011-015-260000-
SOUTHERN NEW ENGLAND
 IN CT

CITY           SKY/WX    TMP DP  RH WIND       PRES   REMARKS
BRADLEY INTL   MOCLDY    49  28  44 SW7       30.00R
HARTFORD       MOCLDY    51  27  39 SW12      30.02R
DANBURY        MOCLDY    41  32  70 CALM      30.03R
WTRBRY/OXFORD  MOCLDY    46  25  42 CALM      30.03R
BRIDGEPORT     MOCLDY    50  42  74 CALM      30.03R
MERIDEN        MOCLDY    42  32  67 SW5       30.02R
NEW HAVEN      MOCLDY    53  38  56 SW3       30.03R
CHESTER        FAIR      48  28  46 CALM      30.03R
GROTON         CLOUDY    50  38  63 W7        30.01R
WILLIMANTIC    MOCLDY    51  26  37 SW3       30.01R

 IN RI

CITY           SKY/WX    TMP DP  RH WIND       PRES   REMARKS
PROVIDENCE     CLOUDY    53  29  39 SW7       30.00R
BLOCK ISLAND   CLOUDY    54  36  50 W10       30.01R
WESTERLY       CLOUDY    52  40  63 W7        30.02R

 IN MA

CITY           SKY/WX    TMP DP  RH WIND       PRES   REMARKS
BOSTON         CLOUDY    56  26  31 W12G24    29.97R
WORCESTER      MOCLDY    46  26  45 W9        29.98R
WESTFIELD      CLOUDY    47  26  44 SW7       29.99R
PROVINCETOWN   CLOUDY    52  41  66 SW13      29.97R
NANTUCKET      CLOUDY    53  45  74 SW10      30.00R
$$

ANZ330-335-338-340-345-350-353-355-260000-
COASTAL MARINE OBSERVATIONS


STATION/POSITION TIME  SKY/WX   TEMP    WIND        PRES    VSBY  WAVE
                                AIR SEA DIR/SP/G                  HT/PER
                 (UTC)          (F)     (DEG/KT/KT) (MB)    (MI)  (FT/S)
NY HARB ENTRANCE 2300            53 53  250/  8/ 10 1018.3          4/ 9
4S FIRE IS       2300               53                N/A           5/10
20S FIRE ISLAND  2300            55 55  260/ 12/ 14 1017.5          6/ 9
23SW MTP         2300                                 N/A           7/ 9
HUDSON CANYON    2300            56 59  300/  8/ 12 1017.9
EXECUTION ROCKS  2300            51 48  230/  6/  8   N/A
WESTERN LI SOUND 2300            51     210/  6/  8   N/A           0
CENTRAL LI SOUND 2200            52 50  240/ 10/ 12   N/A           2/ 4
EASTERN LI SOUND 2200            53 53  240/ 14/ 17   N/A
ROBBINS REEF     2300            52     240/  7/  8 1016.3
$$


>>>>>>>>>>>>>>>>>>>>>>>>>>>> KEY <<<<<<<<<<<<<<<<<<<<<<<<<<<
>                                                          <
>     SKY/WX - SKY CONDITION/PRESENT WEATHER               <
>     TMP    - TEMPERATURE IN FAHRENHEIT                   <
>     DP     - DEWPOINT IN FAHRENHEIT                      <
>     RH     - RELATIVE HUMIDITY IN PERCENT                <
>     WIND   - DIRECTION AND SPEED IN MPH                  <
>     PRES   - MEAN SEA LEVEL PRESSURE IN INCHES OF HG     <
>     WCI    - WIND CHILL INDEX                            <
>     VSB    - VISIBILITY IN MILES                         <
>     HX     - HEAT INDEX                                  <
>     TC     - TEMPERATURE IN CELSIUS                      <
>     VRB    - VARIABLE WIND DIRECTION                     <
>                                                          <
>>>>>>>>>>>>>>>>>>>>>>>>>>>> KEY <<<<<<<<<<<<<<<<<<<<<<<<<<<




USA.gov is the U.S. government's official web portal to all federal, state and local government web resources and services.